TimeMST,TemperatureF,Dew PointF,Humidity,Sea Level PressureIn,VisibilityMPH,Wind Direction,Wind SpeedMPH,Gust SpeedMPH,PrecipitationIn,Events,Conditions,WindDirDegrees,DateUTC
12:53 AM,-9.9,-15.0,78,30.51,10.0,NE,3.5,-,N/A,,Clear,40,2013-12-11 07:53:00
1:53 AM,-9.9,-13.0,86,30.51,10.0,NNW,5.8,-,N/A,,Clear,340,2013-12-11 08:53:00
2:53 AM,-9.9,-14.1,82,30.52,10.0,Calm,Calm,-,N/A,,Clear,0,2013-12-11 09:53:00
3:53 AM,-9.9,-14.1,82,30.54,10.0,Calm,Calm,-,N/A,,Clear,0,2013-12-11 10:53:00
4:53 AM,-7.1,-11.9,79,30.60,10.0,Calm,Calm,-,N/A,,Clear,0,2013-12-11 11:53:00
5:53 AM,-13.0,-18.0,78,30.63,10.0,ESE,4.6,-,N/A,,Clear,110,2013-12-11 12:53:00
6:53 AM,-14.1,-18.9,79,30.67,10.0,ENE,5.8,-,N/A,,Clear,70,2013-12-11 13:53:00
7:53 AM,-11.0,-16.1,78,30.70,10.0,ENE,5.8,-,N/A,,Clear,60,2013-12-11 14:53:00
8:53 AM,-6.0,-9.9,83,30.74,10.0,ESE,4.6,-,N/A,,Clear,110,2013-12-11 15:53:00
9:53 AM,-0.0,-2.0,91,30.70,10.0,Calm,Calm,-,N/A,,Clear,0,2013-12-11 16:53:00
10:53 AM,6.1,1.9,83,30.68,10.0,Calm,Calm,-,N/A,,Clear,0,2013-12-11 17:53:00
11:53 AM,14.0,3.9,64,30.63,10.0,Calm,Calm,-,N/A,,Clear,0,2013-12-11 18:53:00
12:53 PM,18.0,6.1,60,30.62,10.0,Calm,Calm,-,N/A,,Clear,0,2013-12-11 19:53:00
1:53 PM,19.9,5.0,52,30.61,10.0,WNW,4.6,-,N/A,,Clear,290,2013-12-11 20:53:00
2:53 PM,21.0,6.1,53,30.61,10.0,Calm,Calm,-,N/A,,Clear,0,2013-12-11 21:53:00
3:53 PM,19.9,6.1,55,30.63,10.0,West,3.5,-,N/A,,Clear,280,2013-12-11 22:53:00
4:53 PM,15.1,5.0,64,30.65,10.0,NW,3.5,-,N/A,,Clear,310,2013-12-11 23:53:00
5:53 PM,8.1,1.0,73,30.72,10.0,NNW,10.4,-,N/A,,Clear,340,2013-12-12 00:53:00
6:53 PM,5.0,-0.9,76,30.76,10.0,North,11.5,-,N/A,,Clear,350,2013-12-12 01:53:00
7:53 PM,3.0,-2.0,80,30.77,10.0,NNW,4.6,-,N/A,,Clear,340,2013-12-12 02:53:00
8:53 PM,1.0,-4.0,79,30.75,10.0,NNW,9.2,-,N/A,,Clear,340,2013-12-12 03:53:00
9:53 PM,-2.0,-5.1,87,30.74,10.0,North,5.8,-,N/A,,Clear,350,2013-12-12 04:53:00
10:53 PM,-5.1,-9.0,83,30.73,10.0,ENE,3.5,-,N/A,,Clear,70,2013-12-12 05:53:00
11:53 PM,-2.0,-6.0,83,30.67,10.0,North,5.8,-,N/A,,Clear,350,2013-12-12 06:53:00